Regional Weather Roundup
Issued by NWS Goodland, KS

Home | Current Version | Previous Version | Text Only | Print | Product List | Glossary On
Versions: 1 2 3 4 5 6 7 8 9 10 11 12 13 14 15 16 17 18 19 20 21 22 23 24 25 26 27 28 29 30 31 32 33 34 35 36 37 38 39 40 41 42 43 44 45 46 47 48 49 50
173
ASUS43 KGLD 191408
RWRGLD

GOODLAND FORECAST AREA HOURLY WEATHER ROUNDUP
NATIONAL WEATHER SERVICE GOODLAND KS
800 AM MDT TUE SEP 19 2017

...OFFICIAL OBSERVATIONS...

CITY           SKY/WX    TMP DP  RH WIND       PRES   REMARKS
GOODLAND KS    SUNNY     61  58  90 SW8       29.71S
HILL CITY KS   SUNNY     70  64  81 S14       29.72F
IMPERIAL NEB   CLOUDY    63  59  87 S13       29.67F
MCCOOK NEB       N/A     68  65  90 S9        29.67S
AKRON CO       CLOUDY    64  29  26 SW15      29.70F
BURLINGTON CO  CLOUDY    56  47  71 SW9       29.73F
LIMON CO         N/A    N/A N/A N/A MISG      29.79S
$$

...UNOFFICIAL OBSERVATIONS...

CITY           SKY/WX    TMP DP  RH WIND       PRES   REMARKS
LENORA KS        N/A     69  32  25 MISG        N/A
NORTON KS      SUNNY     70  61  73 SE13      29.70S
SHARON SPRINGS   N/A     61  57  88 S9          N/A
TRIBUNE KS     SUNNY     61  55  82 S9        29.75
TRENTON NEB      N/A     68  32  26 SW7         N/A
KIT CARSON CO    N/A     52  48  87 CALM        N/A
YUMA CO        FAIR      54  32  43 CALM      29.67F
$$




USA.gov is the U.S. government's official web portal to all federal, state and local government web resources and services.